Weather History for Ha Noi, Viet Nam

Change the Weather History Date:

Monday, January 21, 2013

  Actual Average Record
Temperature  
Mean Temperature 66 °F -  
Max Temperature 71 °F 65 °F 78 °F (2001)
Min Temperature 62 °F 57 °F 50 °F (2011)
Cooling Degree Days 2    
Growing Degree Days 16 (Base 50)    
Moisture  
Dew Point 60 °F    
Average Humidity 81    
Maximum Humidity 88    
Minimum Humidity 68    
Precipitation  
Precipitation 0.00 in - - ()
Sea Level Pressure  
Sea Level Pressure 30.07 in    
Wind  
Wind Speed 3 mph ()    
Max Wind Speed 12 mph    
Max Gust Speed -    
Visibility 1.6 miles    
Events      
Averages and records for this station are not official NWS values.
T = Trace of Precipitation, MM = Missing Value Source: Averaged Metar Reports

Daily Weather History Graph

Daily Weather History Graph

Search for Another Location

Airport:

Trip Planner

Search our weather history database for the weather conditions in past years. The results will help you decide how hot, cold, wet, or windy it might be!

Date:

Astronomy

Jan. 21, 2013 Rise Set
Actual Time 6:36 AM ICT 5:39 PM ICT
Civil Twilight 6:12 AM ICT 6:03 PM ICT
Nautical Twilight 5:45 AM ICT 6:30 PM ICT
Astronomical Twilight 5:19 AM ICT 6:57 PM ICT
Moon 12:58 PM ICT 1:36 AM ICT
Length of Visible Light 11h 50m
Length of Day
11h 03m
Waxing Gibbous, 70% of the Moon is Illuminated
Jan 21
Waxing Gibbous
Jan 27
Full
Feb 3
Last Quarter
Feb 10
New
Feb 18
First Quarter

Hourly Weather History & Observations

Time (ICT) Temp. Dew Point Humidity Pressure Visibility Wind Dir Wind Speed Gust Speed Precip Events Conditions
12:00 AM 64.4 °F 59.0 °F 83% 30.06 in 1.2 mi Variable 1.2 mph - N/A   Mostly Cloudy
12:30 AM 64.4 °F 59.0 °F 83% 30.06 in 1.6 mi Calm Calm - N/A   Mostly Cloudy
1:00 AM 64.4 °F 59.0 °F 83% 30.06 in 1.1 mi Calm Calm - N/A   Mostly Cloudy
1:30 AM 62.6 °F 59.0 °F 88% 30.04 in 0.8 mi Calm Calm - N/A   Mostly Cloudy
2:00 AM 62.6 °F 59.0 °F 88% 30.04 in 0.9 mi Calm Calm - N/A   Mostly Cloudy
2:30 AM 62.6 °F 59.0 °F 88% 30.04 in 0.9 mi WNW 2.3 mph - N/A   Mostly Cloudy
3:00 AM 62.6 °F 59.0 °F 88% 30.04 in 0.9 mi WNW 2.3 mph - N/A   Mostly Cloudy
3:30 AM 62.6 °F 59.0 °F 88% 30.04 in 0.9 mi West 3.5 mph - N/A   Mostly Cloudy
4:00 AM 62.6 °F 59.0 °F 88% 30.04 in 1.1 mi West 3.5 mph - N/A   Mostly Cloudy
4:30 AM 62.6 °F 59.0 °F 88% 30.04 in 1.2 mi West 4.6 mph - N/A   Mostly Cloudy
5:00 AM 62.6 °F 59.0 °F 88% 30.04 in 1.6 mi West 4.6 mph - N/A   Mostly Cloudy
5:30 AM 62.6 °F 59.0 °F 88% 30.06 in 1.6 mi WSW 4.6 mph - N/A   Mostly Cloudy
6:00 AM 62.6 °F 59.0 °F 88% 30.06 in 1.7 mi West 3.5 mph - N/A   Mostly Cloudy
6:30 AM 62.6 °F 59.0 °F 88% 30.06 in 1.7 mi WSW 2.3 mph - N/A   Mostly Cloudy
7:00 AM 62.6 °F 59.0 °F 88% 30.09 in 1.4 mi Variable 2.3 mph - N/A   Mostly Cloudy
7:30 AM 62.6 °F 59.0 °F 88% 30.09 in 1.6 mi SW 4.6 mph - N/A   Mostly Cloudy
8:00 AM 62.6 °F 59.0 °F 88% 30.12 in 1.7 mi Variable 3.5 mph - N/A   Mostly Cloudy
8:30 AM 62.6 °F 59.0 °F 88% 30.12 in 1.8 mi West 5.8 mph - N/A   Mostly Cloudy
9:00 AM 64.4 °F 59.0 °F 83% 30.12 in 1.6 mi WSW 5.8 mph - N/A   Mostly Cloudy
9:30 AM 64.4 °F 59.0 °F 83% 30.15 in 1.7 mi West 5.8 mph - N/A   Mostly Cloudy
10:00 AM 66.2 °F 59.0 °F 78% 30.15 in 1.9 mi West 4.6 mph - N/A   Mostly Cloudy
10:30 AM 66.2 °F 59.0 °F 78% 30.15 in 1.9 mi Variable 2.3 mph - N/A   Mostly Cloudy
11:00 AM 68.0 °F 60.8 °F 78% 30.15 in 1.9 mi Variable 2.3 mph - N/A   Mostly Cloudy
11:30 AM 68.0 °F 59.0 °F 73% 30.12 in 1.9 mi Variable 2.3 mph - N/A   Mostly Cloudy
12:00 PM 68.0 °F 59.0 °F 73% 30.12 in - Variable 1.2 mph - N/A   Mostly Cloudy
12:30 PM 69.8 °F 59.0 °F 68% 30.09 in 2.5 mi Variable 2.3 mph - N/A   Mostly Cloudy
1:00 PM 69.8 °F 60.8 °F 73% 30.06 in 2.5 mi Variable 3.5 mph - N/A   Mostly Cloudy
1:30 PM 69.8 °F 60.8 °F 73% 30.06 in 1.9 mi Variable 3.5 mph - N/A   Mostly Cloudy
2:00 PM 69.8 °F 60.8 °F 73% 30.04 in 1.6 mi ENE 5.8 mph - N/A   Mostly Cloudy
2:30 PM 71.6 °F 60.8 °F 69% 30.04 in - NE 6.9 mph - N/A   Mostly Cloudy
3:00 PM 71.6 °F 60.8 °F 69% 30.01 in - NE 5.8 mph - N/A   Haze
3:30 PM 71.6 °F 60.8 °F 69% 30.01 in - East 5.8 mph - N/A   Haze
4:00 PM 71.6 °F 60.8 °F 69% 30.01 in - ENE 8.1 mph - N/A   Haze
4:30 PM 71.6 °F 60.8 °F 69% 30.04 in 1.9 mi ENE 6.9 mph - N/A   Mostly Cloudy
5:00 PM 71.6 °F 60.8 °F 69% 30.04 in 1.7 mi NE 3.5 mph - N/A   Mostly Cloudy
5:30 PM 69.8 °F 60.8 °F 73% 30.04 in 1.6 mi NNE 4.6 mph - N/A   Mostly Cloudy
6:00 PM 69.8 °F 62.6 °F 78% 30.04 in 1.6 mi NNE 3.5 mph - N/A   Mostly Cloudy
6:30 PM 69.8 °F 62.6 °F 78% 30.06 in 1.4 mi Variable 3.5 mph - N/A   Mostly Cloudy
7:00 PM 69.8 °F 62.6 °F 78% 30.06 in - ESE 11.5 mph - N/A   Mostly Cloudy
7:30 PM 69.8 °F 62.6 °F 78% 30.06 in 3.1 mi ESE 4.6 mph - N/A   Mostly Cloudy
8:00 PM 69.8 °F 62.6 °F 78% 30.06 in - Variable 3.5 mph - N/A   Mostly Cloudy
8:30 PM 69.8 °F 62.6 °F 78% 30.09 in 2.8 mi SE 8.1 mph - N/A   Mostly Cloudy
9:00 PM 68.0 °F 62.6 °F 83% 30.09 in - SE 5.8 mph - N/A   Mostly Cloudy
9:30 PM 68.0 °F 62.6 °F 83% 30.09 in - ESE 4.6 mph - N/A   Mostly Cloudy
10:00 PM 66.2 °F 62.6 °F 88% 30.09 in 1.9 mi East 2.3 mph - N/A   Mostly Cloudy
10:30 PM 66.2 °F 60.8 °F 83% 30.09 in 1.2 mi Calm Calm - N/A   Mostly Cloudy
11:00 PM 66.2 °F 62.6 °F 88% 30.09 in 1.7 mi Variable 1.2 mph - N/A   Mostly Cloudy
11:30 PM 66.2 °F 62.6 °F 88% 30.09 in 1.6 mi Calm Calm - N/A   Mostly Cloudy